CAPE
2276 2208 2146 2158 2139 2179 2293 2450 2580 2266 1210 38 0 0 0 0 0 0 0 0 0 0 0 0 0 0 0 17 10 5 0 0 0 0 0 0 0 0 0 0 0 0 0 6 3 42 208 194 196 207 236 255 231 170 172 137 76 55 45 0 0 0 0 0 0 0 0 0 0 0 0 0 0 0 0 0 0 0 0 0 0 0 0 0 0
2246 2208 2134 2110 2131 2197 2285 2485 2589 2186 1130 0 0 0 0 0 0 0 0 0 0 0 0 0 0 0 0 0 3 0 0 0 0 0 0 0 0 0 0 0 0 0 0 7 55 202 268 269 282 310 342 346 317 281 212 102 58 49 48 46 0 0 0 0 0 0 0 0 0 0 0 0 0 0 0 0 0 0 0 0 0 0 0 0 0
2172 2125 2077 2079 2121 2200 2274 2475 2515 2146 1077 412 0 0 0 0 0 0 0 0 0 0 0 0 0 0 0 1 0 0 0 0 0 0 0 0 0 0 1 6 12 40 50 81 91 79 235 282 320 369 395 343 335 335 244 126 67 22 0 24 0 0 0 0 19 5 0 0 0 0 0 0 0 0 0 0 0 0 0 0 0 0 0 0 0
2148 2084 2044 1982 2005 2065 2208 2411 2504 1958 794 0 0 0 0 0 0 0 0 0 0 0 0 0 0 0 0 4 0 0 0 0 0 0 0 0 0 0 0 0 12 41 81 134 153 128 162 235 297 349 343 298 304 328 308 193 130 77 0 0 0 0 45 34 24 19 0 0 0 0 0 0 0 0 0 0 0 0 0 0 0 0 0 0 0
2163 2094 2031 1935 1890 1875 2110 2324 2266 1556 370 0 0 0 0 0 0 0 0 0 0 0 0 0 0 0 0 0 0 0 0 0 0 0 0 0 0 0 0 0 3 31 95 169 237 287 214 228 274 284 304 348 384 382 356 317 274 201 115 17 0 0 0 14 15 6 13 0 0 0 0 0 0 0 0 0 0 0 0 0 0 0 0 0 0
2159 2106 1968 1878 1754 1803 2006 2196 2102 1853 0 0 0 0 0 0 0 0 0 0 0 0 0 0 0 0 0 0 0 0 0 0 0 0 0 0 0 0 0 0 6 20 46 74 110 199 258 251 214 240 350 413 406 333 254 239 218 187 133 0 12 0 0 0 0 0 30 0 0 0 0 0 0 0 0 1 1 0 0 0 0 0 0 0 0
2142 2085 1998 1764 1636 1682 1996 2242 1921 844 0 0 0 0 0 0 0 0 0 0 0 0 0 0 0 0 0 0 0 0 0 0 0 0 0 0 0 0 2 5 19 39 52 66 151 196 193 183 221 319 402 409 315 183 38 15 4 4 2 0 0 0 0 0 1 21 46 42 0 0 0 0 1 4 13 4 2 0 0 0 0 0 0 0 0
2135 2106 2029 1894 1639 1700 2007 1722 721 127 0 0 0 0 0 0 0 0 0 0 0 0 0 0 0 0 0 0 0 0 0 0 0 0 0 0 0 0 5 34 44 56 80 95 141 156 176 217 273 307 275 213 145 60 27 42 29 8 8 1 0 0 2 38 52 53 52 42 0 0 0 2 9 12 14 6 2 0 0 0 0 0 0 0 0
2098 2089 2045 1971 1868 1662 1499 1149 196 48 234 231 165 0 0 0 0 0 0 0 0 0 0 0 0 0 0 0 0 0 0 0 0 0 0 0 0 0 1 8 39 62 58 40 27 140 162 144 153 161 144 123 125 132 148 210 224 177 117 18 29 142 122 109 112 70 20 1 0 4 6 7 14 3 1 0 0 0 0 0 0 0 0 0 0
2084 2071 2044 2001 1861 1776 1677 1474 844 237 114 134 96 39 16 6 0 0 0 0 0 0 0 0 0 0 0 0 0 0 0 0 6 0 0 4 0 0 0 0 11 32 104 106 42 9 10 22 77 92 98 110 138 172 230 329 418 394 268 222 262 289 254 242 162 78 36 19 33 34 19 2 1 2 2 1 6 9 2 2 1 0 0 0 0
2079 2076 2024 1947 1931 1880 1794 1633 1189 811 378 0 0 10 6 5 0 0 0 0 0 0 0 0 0 0 0 0 0 0 0 0 0 0 0 0 54 26 8 24 48 65 69 72 118 142 107 44 31 59 113 161 233 166 224 284 384 464 443 399 408 404 346 307 220 107 91 96 105 96 67 10 0 4 5 10 14 8 4 2 2 2 2 1 0
2062 2058 2018 1964 1904 1867 1872 1859 1626 844 423 60 0 22 0 0 0 3 0 0 0 0 0 0 0 0 0 0 0 0 0 0 0 126 183 199 204 219 235 190 110 66 54 79 108 130 118 74 54 63 111 137 180 189 136 131 166 236 368 487 482 438 430 359 345 242 192 178 158 167 160 99 40 21 6 10 19 16 7 4 6 6 3 1 0
2037 2044 1994 1960 1936 1906 1823 1741 1655 830 759 240 242 136 2 3 2 1 1 1 0 0 0 0 0 0 0 0 0 0 0 0 0 96 193 262 279 286 283 235 116 147 89 112 152 154 106 60 64 50 32 8 92 240 214 229 181 267 403 504 536 448 407 363 266 187 306 166 152 148 195 127 41 40 75 66 48 19 13 6 12 8 6 4 0
2024 2026 1993 1949 1928 1911 1756 1708 1524 1063 484 245 0 4 0 11 2 94 88 0 0 0 0 0 0 0 0 0 0 2 2 6 50 93 185 261 192 150 35 64 107 147 168 198 193 164 160 162 95 27 39 52 62 65 181 378 418 454 476 488 470 453 447 439 382 290 248 207 168 113 148 135 54 52 61 45 28 15 5 5 10 6 6 4 0
1922 1963 1945 1912 1916 1870 1818 1696 1568 862 488 173 6 0 0 0 0 0 0 0 0 0 0 0 0 0 1 333 334 217 21 6 74 134 274 339 447 371 135 163 191 194 191 172 161 168 230 212 150 143 166 130 124 114 306 351 347 321 309 337 399 408 464 516 506 438 333 202 78 60 58 43 46 67 45 24 14 15 11 11 8 6 3 2 1
1803 1820 1847 1828 1817 1758 1676 1644 1492 654 447 310 150 12 0 0 0 0 0 0 0 0 0 164 86 9 68 419 339 92 95 3 86 238 324 495 583 395 44 0 0 32 29 24 18 0 30 0 34 19 18 48 156 348 313 239 193 206 242 274 289 336 394 426 471 348 276 158 51 35 46 41 6 9 4 1 1 2 2 1 2 2 1 1 1
1714 1748 1787 1764 1701 1656 1598 1641 1422 863 590 396 33 8 0 0 0 0 0 0 0 0 0 0 94 302 400 392 263 96 122 170 223 379 515 638 558 279 0 0 0 0 0 0 0 0 0 0 1 9 28 189 150 0 0 1 29 98 139 161 162 231 362 419 380 328 189 66 48 64 45 2 0 0 0 0 26 22 17 5 0 1 2 0 0
1733 1770 1775 1729 1710 1711 1691 1515 1328 960 688 437 68 3 0 0 0 1 2 0 0 2 8 310 410 480 488 462 419 134 162 263 445 648 654 519 308 204 123 72 76 83 14 0 0 0 1 31 86 111 90 72 14 0 0 0 1 14 46 50 77 219 410 399 341 182 10 38 70 22 0 0 0 1 1 0 21 23 16 0 0 3 8 9 3
1742 1771 1778 1770 1764 1767 1697 1364 1015 717 478 84 50 24 0 0 0 0 4 9 30 36 76 244 400 526 591 591 456 169 261 539 605 535 367 280 200 127 0 48 106 0 0 0 0 0 0 0 0 8 1 0 0 0 0 0 0 6 29 158 320 371 342 0 0 0 0 0 0 0 0 0 2 1 1 0 0 0 6 5 6 4 6 4 7
1692 1716 1743 1734 1694 1723 1415 1244 887 599 427 76 67 15 0 0 0 1 18 34 67 50 86 368 471 570 614 517 377 355 536 543 495 391 273 186 144 44 166 146 0 0 0 0 1 0 0 0 0 0 0 0 0 0 0 0 0 0 0 0 0 13 0 0 0 0 0 0 0 0 0 0 0 0 0 0 0 0 0 2 5 10 10 4 6
1620 1632 1650 1646 1626 1629 1468 1251 1029 641 262 166 124 29 0 99 108 228 274 270 286 292 370 477 538 564 475 320 463 497 494 506 473 384 353 338 291 254 186 0 0 0 0 0 0 0 0 0 0 0 0 0 0 0 0 0 0 0 0 0 1 0 0 0 0 0 0 0 0 0 0 0 0 0 0 0 0 0 0 0 0 2 5 6 3
1514 1700 1788 1753 1670 1569 1426 1226 968 541 121 78 2 202 214 261 346 421 435 444 512 627 702 678 694 778 769 804 777 777 745 636 591 489 400 337 320 171 0 0 0 0 0 0 0 0 0 0 0 0 0 0 0 0 0 0 0 1 0 0 0 0 0 0 0 0 0 0 0 0 0 0 0 0 0 0 0 0 0 0 0 0 0 2 5
1642 1780 1785 1674 1592 1533 1398 1028 685 179 28 5 180 310 372 444 526 564 546 603 682 796 941 966 930 964 963 866 814 837 774 586 387 265 330 322 68 0 0 0 0 0 0 0 0 0 0 0 0 0 0 0 0 0 0 0 0 0 0 0 0 0 0 0 0 0 0 0 0 0 0 0 0 0 0 0 0 0 0 0 0 0 2 4 3
1717 1721 1664 1533 1440 1384 1337 1018 520 440 442 416 429 468 453 511 632 693 822 950 1070 1159 1228 1192 1222 1203 1054 956 874 691 499 410 368 330 243 0 0 0 0 0 0 0 0 0 0 0 0 0 0 0 0 0 0 0 0 0 0 0 1 1 1 0 0 0 0 0 0 0 0 0 0 0 0 0 0 1 1 0 1 1 2 2 2 1 0
1608 1512 1390 1278 1234 1285 1236 851 603 590 552 481 526 530 315 386 582 732 986 1224 1315 1358 1376 1419 1370 1316 1257 1043 820 618 571 510 290 0 0 0 0 0 0 0 0 0 0 0 0 0 0 0 0 0 0 0 0 0 0 0 2 2 2 0 0 0 0 1 0 0 0 0 0 0 0 0 1 1 1 2 2 2 4 2 2 1 0 0 0
1320 1107 1012 1094 1234 1226 998 689 718 760 772 767 648 460 469 567 708 754 1018 1446 1714 1766 1730 1616 1466 1304 1056 802 664 636 606 336 0 0 0 0 0 0 0 0 0 0 0 0 0 0 0 0 0 0 0 0 0 1 2 0 1 1 1 0 0 0 0 1 1 0 1 1 0 1 1 1 0 0 0 2 2 1 4 7 4 2 0 2 2
1014 830 810 1042 1182 1076 796 897 931 964 960 890 748 711 672 662 798 984 1204 1664 1861 1762 1640 1539 1340 1080 849 698 641 611 363 0 0 0 0 0 0 0 0 0 0 0 0 0 0 0 0 0 0 0 0 1 0 2 2 2 1 0 0 0 0 0 0 0 1 1 1 1 0 0 0 1 0 1 0 1 1 1 3 14 4 2 4 3 4
1070 876 765 933 1033 933 902 1012 1050 1133 1169 1166 1080 958 843 1016 1084 1172 1474 1850 1776 1628 1510 1394 1165 982 831 698 561 143 0 0 0 0 0 0 0 0 0 0 0 0 0 0 0 0 0 0 0 1 0 0 0 0 0 0 0 0 0 0 0 0 0 0 0 0 0 0 0 0 1 1 0 0 1 1 1 0 2 8 5 3 4 6 2
1315 952 754 739 802 936 967 1139 964 1022 1130 1129 1035 1010 938 1007 1187 1486 1821 1703 1627 1615 1492 1320 1068 976 722 378 0 0 0 0 0 0 0 0 0 0 0 0 0 0 0 0 0 0 0 0 0 0 0 0 0 0 0 0 0 0 0 0 0 0 0 0 0 0 0 1 1 1 1 0 0 0 0 0 0 0 1 3 3 7 2 2 4
1407 1022 837 832 1020 995 927 865 831 822 790 712 682 702 816 971 1358 1652 1758 1679 1535 1303 1115 1022 956 632 162 0 0 0 0 0 0 0 0 0 0 0 0 0 0 0 0 0 0 0 0 0 0 0 0 0 0 0 0 0 0 0 0 0 0 0 0 0 0 0 0 1 1 1 1 1 1 0 1 1 1 0 0 1 3 6 4 3 2
1596 1250 1051 1161 1019 802 758 645 607 558 576 632 667 790 985 1164 1756 1830 1720 1503 1257 1073 1071 936 594 228 0 0 0 0 0 0 0 0 0 0 0 0 0 0 0 0 0 0 0 0 0 0 0 0 0 0 0 0 0 0 0 0 0 0 0 0 0 0 0 0 0 0 0 0 0 0 0 0 0 0 0 1 0 0 1 1 3 6 5
1528 1402 1322 1192 974 851 687 516 508 477 586 652 764 993 1463 1841 1819 1618 1285 1087 1017 983 931 546 270 140 0 0 0 0 0 0 0 0 0 0 0 0 0 0 0 0 0 0 0 0 0 0 0 0 0 0 0 0 0 0 0 0 0 0 0 0 0 0 0 0 0 0 0 0 0 0 0 0 0 0 0 0 0 0 0 0 1 0 1
784 1005 818 446 498 715 529 622 486 322 566 866 1233 1676 1792 1686 1432 1179 782 816 830 808 572 334 212 110 0 0 0 0 0 0 0 0 0 0 0 0 0 0 0 0 0 0 0 0 0 0 0 0 0 0 0 0 0 0 0 0 0 0 0 0 0 0 0 0 0 0 0 0 0 0 0 0 0 0 0 0 0 0 0 0 5 0 2
732 590 576 46 435 762 884 831 721 521 804 1173 1499 1623 1510 1331 1168 983 924 691 537 422 308 202 156 31 0 0 0 0 0 0 0 0 0 0 0 0 0 0 0 0 0 0 0 0 0 0 0 0 0 0 0 0 0 0 0 0 0 0 0 0 0 0 0 0 0 0 0 0 0 0 0 0 0 0 0 0 0 0 0 0 5 4 1
460 1042 955 808 604 679 918 1309 1337 1275 1376 1360 1402 1408 1349 1252 1050 993 820 658 520 378 232 193 104 0 0 0 0 0 0 0 0 0 0 0 0 0 0 0 0 0 0 0 0 0 0 0 0 0 0 0 0 0 0 0 0 0 0 0 0 0 0 0 0 0 0 0 0 0 0 0 0 0 0 0 0 0 0 0 0 0 5 14 2
821 1224 1492 1185 733 824 1464 1766 1573 1529 1448 1421 1437 1412 1308 1158 1044 869 676 548 408 285 209 172 98 0 0 0 0 0 0 0 0 0 0 0 0 0 0 0 0 0 0 0 0 0 0 0 0 0 0 0 0 0 0 0 0 0 0 0 0 0 0 0 0 0 0 0 0 0 0 0 0 0 0 0 0 0 0 0 0 0 2 13 27
942 1315 1367 1224 1313 1756 1857 1622 1430 1372 1493 1611 1512 1354 1186 1047 882 671 563 472 331 262 218 196 177 97 0 1 0 0 0 0 0 0 0 0 0 0 0 0 0 0 0 0 0 0 0 0 0 0 0 0 0 0 0 0 0 0 0 0 0 0 0 0 0 0 0 0 0 0 0 0 0 0 0 0 0 0 0 0 0 0 0 0 9
1136 1501 1787 1920 2014 2063 1998 1857 1682 1637 1571 1407 1224 1011 910 804 657 585 507 371 309 262 236 194 120 0 0 0 0 0 0 0 0 0 0 0 0 0 0 0 0 0 0 0 0 0 0 0 0 0 0 0 0 0 0 0 0 0 0 0 0 0 0 0 0 0 0 0 0 0 0 0 0 0 0 0 0 0 0 0 0 0 0 0 2
897 913 1128 1242 1401 1460 1384 1249 1251 1114 1024 923 836 754 627 558 540 479 413 351 297 256 210 178 0 0 0 0 0 0 0 0 0 0 0 0 0 0 0 0 0 0 0 0 0 0 0 0 0 0 0 0 0 0 0 0 0 0 0 0 0 0 0 0 0 0 0 0 0 0 0 0 0 0 0 0 0 0 0 0 0 0 0 0 2
138 656 704 793 862 875 876 817 763 704 646 582 566 570 541 528 478 437 368 314 255 216 207 157 6 0 0 0 0 0 0 0 0 0 0 0 0 0 0 0 0 0 0 0 0 0 0 0 0 0 0 0 0 0 0 0 0 0 0 0 0 0 0 0 0 0 0 0 0 0 0 0 0 0 0 0 0 0 0 0 0 0 1 2 2
0 216 506 472 405 296 421 400 454 493 483 472 520 544 570 490 415 346 302 252 218 218 216 158 38 0 0 0 0 0 0 0 0 0 0 0 0 0 0 0 0 0 0 0 0 0 0 0 0 0 0 0 0 0 0 0 0 0 0 0 0 0 0 0 0 0 0 0 0 0 0 0 0 0 0 0 0 0 0 0 0 0 0 0 2
339 408 396 366 287 331 344 372 408 436 504 524 554 472 408 356 318 291 247 229 239 250 211 122 0 0 0 0 0 0 0 0 0 0 0 0 0 0 0 0 0 0 0 0 0 0 0 0 1 2 0 0 0 0 0 0 0 0 0 0 0 0 0 0 0 0 0 0 0 0 0 0 0 0 0 0 0 0 0 0 0 0 0 0 0
160 342 293 295 346 350 331 296 321 348 406 380 346 315 307 290 278 236 60 212 304 270 189 44 0 0 0 0 0 3 0 0 0 0 0 0 0 0 0 0 0 0 0 0 0 0 1 0 0 0 0 0 0 0 0 0 0 0 0 0 0 0 0 0 0 0 0 0 0 0 0 0 0 0 0 0 0 0 0 0 0 0 0 0 2
16 156 271 532 429 394 320 249 267 295 314 298 309 312 297 303 294 268 264 287 293 249 158 32 0 0 0 0 3 8 4 4 2 1 0 0 0 0 0 0 0 0 0 0 1 0 0 0 0 0 0 0 0 0 0 0 0 0 0 0 0 0 0 0 0 0 0 0 0 0 0 0 0 0 0 0 0 0 0 0 0 0 0 0 0
159 246 338 330 372 349 298 276 290 283 286 308 339 343 300 274 266 278 256 214 228 210 135 25 0 0 1 10 16 10 5 8 2 2 0 0 0 0 0 0 0 0 0 0 0 0 0 0 0 0 0 0 0 0 0 0 0 0 0 0 0 0 0 0 0 0 0 0 0 0 0 0 0 0 0 0 0 0 0 0 0 0 0 0 0
304 291 278 314 312 347 340 301 313 325 326 357 372 345 302 225 122 112 51 30 86 80 54 19 0 0 10 20 22 9 10 12 5 0 0 0 0 0 0 0 0 0 0 0 0 0 0 0 0 0 0 0 0 0 0 0 0 0 0 0 0 0 0 0 0 0 0 0 0 0 0 0 0 0 0 0 0 0 0 0 0 0 0 0 0
8 185 258 322 314 286 324 323 312 314 315 309 282 258 211 147 0 44 78 66 39 28 17 4 0 3 8 14 14 14 15 13 0 0 0 0 0 0 0 0 0 0 0 0 0 0 0 0 0 0 0 0 0 0 0 0 0 0 0 0 0 0 0 0 0 0 0 0 0 0 0 0 0 0 0 0 0 0 0 0 0 0 0 0 0
289 186 312 274 213 199 246 266 163 24 100 187 158 128 112 78 38 19 17 14 13 12 0 0 0 8 9 7 10 12 13 12 0 0 0 0 0 0 0 0 0 0 0 0 0 0 0 0 0 0 0 0 0 0 0 0 0 0 0 0 0 0 0 0 0 0 0 0 0 0 0 0 0 0 0 0 0 0 0 0 0 0 0 0 0
282 259 177 0 1 0 0 0 52 183 160 122 35 10 40 27 20 19 4 0 0 0 0 0 0 0 18 14 0 0 9 8 0 0 0 0 0 0 0 0 0 0 0 0 0 0 0 0 0 0 0 0 0 0 0 0 0 0 0 0 0 0 0 0 0 0 0 0 0 0 0 0 0 0 0 0 0 0 0 0 0 0 0 0 0
169 26 53 61 15 0 0 144 171 167 128 88 62 53 48 44 32 32 31 19 0 0 0 2 16 22 25 21 14 10 10 0 0 0 0 0 0 0 0 0 0 0 0 0 0 0 0 0 0 0 0 0 0 0 0 0 0 0 0 0 0 0 0 0 0 0 0 0 0 0 0 0 0 0 0 0 0 0 0 0 0 0 0 0 0
0 0 24 125 98 84 128 128 96 62 38 34 36 38 38 42 46 49 50 47 34 20 16 21 25 26 25 25 26 24 4 0 0 0 0 0 0 0 0 0 0 0 0 0 0 0 0 0 0 0 0 0 0 0 0 0 0 0 0 0 0 0 0 0 0 0 0 0 0 0 0 0 0 0 0 0 0 0 0 0 0 0 0 0 0
Wind_Speed
24 25 29 30 34 35 36 36 37 38 39 nan nan nan nan nan nan nan nan nan nan nan nan nan nan nan nan nan nan nan nan nan nan nan nan nan nan nan nan nan nan nan nan nan nan nan 40 39 38 37 38 39 39 39 40 42 nan nan nan nan nan nan nan nan nan nan nan nan nan nan nan nan nan nan nan nan nan nan nan nan nan nan nan nan nan
25 29 32 35 38 38 39 39 40 40 41 nan nan nan nan nan nan nan nan nan nan nan nan nan nan nan nan nan nan nan nan nan nan nan nan nan nan nan nan nan nan nan nan nan nan 39 38 36 36 37 40 41 40 40 41 42 nan nan nan nan nan nan nan nan nan nan nan nan nan nan nan nan nan nan nan nan nan nan nan nan nan nan nan nan nan
28 31 33 36 38 39 41 41 41 43 42 43 nan nan nan nan nan nan nan nan nan nan nan nan nan nan nan nan nan nan nan nan nan nan nan nan nan nan nan nan nan nan nan nan nan nan 35 35 36 38 41 42 41 41 43 42 nan nan nan nan nan nan nan nan nan nan nan nan nan nan nan nan nan nan nan nan nan nan nan nan nan nan nan nan nan
32 34 35 36 39 41 42 41 42 43 44 nan nan nan nan nan nan nan nan nan nan nan nan nan nan nan nan nan nan nan nan nan nan nan nan nan nan nan nan nan nan nan nan 34 35 36 36 35 36 39 41 42 42 43 43 41 40 nan nan nan nan nan nan nan nan nan nan nan nan nan nan nan nan nan nan nan nan nan nan nan nan nan nan nan nan
35 37 38 40 41 42 44 45 46 45 46 nan nan nan nan nan nan nan nan nan nan nan nan nan nan nan nan nan nan nan nan nan nan nan nan nan nan nan nan nan nan nan nan 36 36 36 36 36 35 39 43 44 43 42 41 39 39 40 40 nan nan nan nan nan nan nan nan nan nan nan nan nan nan nan nan nan nan nan nan nan nan nan nan nan nan
37 40 42 43 43 46 46 45 45 44 nan nan nan nan nan nan nan nan nan nan nan nan nan nan nan nan nan nan nan nan nan nan nan nan nan nan nan nan nan nan nan nan nan nan 37 37 37 37 38 43 46 45 42 41 41 38 39 40 42 nan nan nan nan nan nan nan nan nan nan nan nan nan nan nan nan nan nan nan nan nan nan nan nan nan nan
37 41 43 44 44 48 48 50 52 52 nan nan nan nan nan nan nan nan nan nan nan nan nan nan nan nan nan nan nan nan nan nan nan nan nan nan nan nan nan nan nan nan nan nan 37 38 38 40 43 46 46 45 43 41 nan nan nan nan nan nan nan nan nan nan nan nan nan nan nan nan nan nan nan nan nan nan nan nan nan nan nan nan nan nan nan
40 42 45 45 47 50 52 52 52 52 nan nan nan nan nan nan nan nan nan nan nan nan nan nan nan nan nan nan nan nan nan nan nan nan nan nan nan nan nan nan nan nan nan nan 37 38 41 43 45 45 45 44 44 nan nan nan nan nan nan nan nan nan nan nan nan nan nan nan nan nan nan nan nan nan nan nan nan nan nan nan nan nan nan nan nan
41 44 46 47 52 56 56 53 49 nan 48 50 49 nan nan nan nan nan nan nan nan nan nan nan nan nan nan nan nan nan nan nan nan nan nan nan nan nan nan nan nan nan nan nan nan 41 42 44 44 44 45 43 42 42 41 41 41 40 40 nan nan 46 46 46 47 nan nan nan nan nan nan nan nan nan nan nan nan nan nan nan nan nan nan nan nan
43 45 48 51 56 56 55 52 51 49 47 46 nan nan nan nan nan nan nan nan nan nan nan nan nan nan nan nan nan nan nan nan nan nan nan nan nan nan nan nan nan nan 38 39 nan nan nan nan nan nan nan 42 41 40 38 37 37 38 40 44 46 47 47 46 43 nan nan nan nan nan nan nan nan nan nan nan nan nan nan nan nan nan nan nan nan
44 47 50 53 55 55 53 53 54 50 45 nan nan nan nan nan nan nan nan nan nan nan nan nan nan nan nan nan nan nan nan nan nan nan nan nan nan nan nan nan nan nan nan nan 41 42 44 nan nan nan 41 42 41 39 37 35 34 35 36 39 42 46 45 43 41 42 nan nan 38 nan nan nan nan nan nan nan nan nan nan nan nan nan nan nan nan
46 48 50 52 54 54 53 55 57 53 44 nan nan nan nan nan nan nan nan nan nan nan nan nan nan nan nan nan nan nan nan nan nan 32 34 36 39 40 41 39 42 nan nan nan 44 44 44 nan nan nan 44 44 43 40 37 35 35 36 38 40 42 43 45 43 41 39 40 39 35 30 26 nan nan nan nan nan nan nan nan nan nan nan nan nan nan
48 49 49 50 51 51 52 56 58 49 40 38 31 32 nan nan nan nan nan nan nan nan nan nan nan nan nan nan nan nan nan nan nan nan 35 36 39 41 41 43 44 45 nan 46 47 48 47 nan nan nan nan nan nan 41 40 37 37 38 39 40 41 42 42 41 40 40 39 35 31 26 25 24 nan nan nan nan nan nan nan nan nan nan nan nan nan
49 49 48 48 49 51 54 58 60 49 39 39 nan nan nan nan nan nan nan nan nan nan nan nan nan nan nan nan nan nan nan nan nan nan 36 37 39 42 nan nan 45 45 46 49 50 49 49 50 nan nan nan nan nan nan 40 39 38 38 41 44 43 40 40 40 40 39 38 34 29 25 22 25 nan nan nan nan nan nan nan nan nan nan nan nan nan
49 50 50 49 51 54 57 61 58 46 43 43 nan nan nan nan nan nan nan nan nan nan nan nan nan nan nan 32 30 29 nan nan nan 36 37 39 40 43 43 44 44 45 46 48 49 49 50 51 50 47 45 42 43 43 39 38 38 38 38 38 37 36 36 38 41 41 36 34 nan nan nan nan nan nan nan nan nan nan nan nan nan nan nan nan nan
50 51 52 53 54 57 61 62 56 46 45 44 43 nan nan nan nan nan nan nan nan nan nan 32 nan nan nan 31 31 nan nan nan nan 37 40 41 44 45 nan nan nan nan nan nan nan nan nan nan nan nan nan nan 38 38 40 39 38 36 36 35 34 34 35 37 37 34 31 28 nan nan nan nan nan nan nan nan nan nan nan nan nan nan nan nan nan
53 55 55 55 57 60 63 62 56 48 47 49 nan nan nan nan nan nan nan nan nan nan nan nan nan 29 30 31 31 nan 29 33 37 39 42 45 47 44 nan nan nan nan nan nan nan nan nan nan nan nan nan 40 37 nan nan nan nan nan 33 33 34 34 33 34 36 32 28 nan nan nan nan nan nan nan nan nan nan nan nan nan nan nan nan nan nan
58 58 57 56 58 62 64 61 56 51 48 48 nan nan nan nan nan nan nan nan nan nan nan 29 27 28 30 31 31 31 32 35 42 44 46 48 45 45 45 nan nan nan nan nan nan nan nan nan nan 44 nan nan nan nan nan nan nan nan nan nan nan 33 32 31 30 28 nan nan nan nan nan nan nan nan nan nan nan nan nan nan nan nan nan nan nan
60 60 59 57 58 62 63 59 55 51 46 nan nan nan nan nan nan nan nan nan nan nan nan 30 28 30 30 31 34 35 36 40 48 47 48 46 44 43 nan nan 45 nan nan nan nan nan nan nan nan nan nan nan nan nan nan nan nan nan nan 34 33 30 29 nan nan nan nan nan nan nan nan nan nan nan nan nan nan nan nan nan nan nan nan nan nan
60 61 59 57 57 60 60 57 54 49 45 nan nan nan nan nan nan nan nan nan nan nan nan 33 32 32 35 36 36 37 40 44 48 50 48 46 45 nan 46 48 nan nan nan nan nan nan nan nan nan nan nan nan nan nan nan nan nan nan nan nan nan nan nan nan nan nan nan nan nan nan nan nan nan nan nan nan nan nan nan nan nan nan nan nan nan
61 60 57 56 56 58 56 54 52 48 45 42 36 nan nan nan 27 20 22 25 27 29 32 34 34 34 36 35 37 40 42 46 46 48 45 45 46 46 46 nan nan nan nan nan nan nan nan nan nan nan nan nan nan nan nan nan nan nan nan nan nan nan nan nan nan nan nan nan nan nan nan nan nan nan nan nan nan nan nan nan nan nan nan nan nan
58 56 55 55 55 54 53 51 50 49 47 nan nan 33 34 31 24 22 25 28 29 30 32 35 35 34 34 35 38 42 43 45 46 46 45 46 47 47 nan nan nan nan nan nan nan nan nan nan nan nan nan nan nan nan nan nan nan nan nan nan nan nan nan nan nan nan nan nan nan nan nan nan nan nan nan nan nan nan nan nan nan nan nan nan nan
54 53 53 54 52 52 51 51 50 47 nan nan 39 32 33 34 31 29 31 33 33 32 32 33 33 32 32 34 39 42 43 43 44 43 48 48 nan nan nan nan nan nan nan nan nan nan nan nan nan nan nan nan nan nan nan nan nan nan nan nan nan nan nan nan nan nan nan nan nan nan nan nan nan nan nan nan nan nan nan nan nan nan nan nan nan
51 51 52 51 50 50 50 49 48 47 47 46 41 35 36 37 33 31 34 37 37 35 31 30 31 33 35 36 39 42 43 43 43 44 48 nan nan nan nan nan nan nan nan nan nan nan nan nan nan nan nan nan nan nan nan nan nan nan nan nan nan nan nan nan nan nan nan nan nan nan nan nan nan nan nan nan nan nan nan nan nan nan nan nan nan
48 49 49 48 48 48 48 48 47 47 47 46 41 35 35 35 31 33 38 40 41 39 33 31 33 36 38 40 43 43 44 44 44 nan nan nan nan nan nan nan nan nan nan nan nan nan nan nan nan nan nan nan nan nan nan nan nan nan nan nan nan nan nan nan nan nan nan nan nan nan nan nan nan nan nan nan nan nan nan nan nan nan nan nan nan
46 46 46 46 46 46 47 47 47 47 47 43 38 34 34 35 35 39 41 42 44 41 37 35 37 39 39 42 46 46 47 46 nan nan nan nan nan nan nan nan nan nan nan nan nan nan nan nan nan nan nan nan nan nan nan nan nan nan nan nan nan nan nan nan nan nan nan nan nan nan nan nan nan nan nan nan nan nan nan nan nan nan nan nan nan
45 45 45 45 45 45 46 46 46 46 44 39 35 33 34 36 37 40 41 44 45 42 39 39 41 42 43 46 48 48 48 nan nan nan nan nan nan nan nan nan nan nan nan nan nan nan nan nan nan nan nan nan nan nan nan nan nan nan nan nan nan nan nan nan nan nan nan nan nan nan nan nan nan nan nan nan nan nan nan nan nan nan nan nan nan
44 44 45 45 44 43 44 46 48 45 41 38 37 37 36 35 34 37 42 47 47 42 41 42 43 45 47 49 50 49 nan nan nan nan nan nan nan nan nan nan nan nan nan nan nan nan nan nan nan nan nan nan nan nan nan nan nan nan nan nan nan nan nan nan nan nan nan nan nan nan nan nan nan nan nan nan nan nan nan nan nan nan nan nan nan
43 45 45 45 44 42 43 45 48 46 43 42 40 36 32 31 36 42 44 43 41 43 44 44 45 48 51 51 nan nan nan nan nan nan nan nan nan nan nan nan nan nan nan nan nan nan nan nan nan nan nan nan nan nan nan nan nan nan nan nan nan nan nan nan nan nan nan nan nan nan nan nan nan nan nan nan nan nan nan nan nan nan nan nan nan
43 44 44 45 44 44 45 47 48 47 44 40 39 39 42 42 41 43 44 43 44 43 45 47 49 51 52 nan nan nan nan nan nan nan nan nan nan nan nan nan nan nan nan nan nan nan nan nan nan nan nan nan nan nan nan nan nan nan nan nan nan nan nan nan nan nan nan nan nan nan nan nan nan nan nan nan nan nan nan nan nan nan nan nan nan
42 42 44 44 46 47 49 48 46 44 41 40 40 43 44 47 50 50 49 49 49 51 53 55 56 52 nan nan nan nan nan nan nan nan nan nan nan nan nan nan nan nan nan nan nan nan nan nan nan nan nan nan nan nan nan nan nan nan nan nan nan nan nan nan nan nan nan nan nan nan nan nan nan nan nan nan nan nan nan nan nan nan nan nan nan
44 44 45 49 51 51 50 47 44 42 42 43 46 48 49 50 49 51 50 49 51 54 55 55 53 50 nan nan nan nan nan nan nan nan nan nan nan nan nan nan nan nan nan nan nan nan nan nan nan nan nan nan nan nan nan nan nan nan nan nan nan nan nan nan nan nan nan nan nan nan nan nan nan nan nan nan nan nan nan nan nan nan nan nan nan
44 48 51 53 54 52 50 46 45 48 48 50 50 49 48 48 49 47 47 51 54 54 53 51 50 48 nan nan nan nan nan nan nan nan nan nan nan nan nan nan nan nan nan nan nan nan nan nan nan nan nan nan nan nan nan nan nan nan nan nan nan nan nan nan nan nan nan nan nan nan nan nan nan nan nan nan nan nan nan nan nan nan nan nan nan
48 50 53 nan 53 50 47 47 49 49 49 50 49 47 45 45 46 48 49 49 49 49 48 46 44 nan nan nan nan nan nan nan nan nan nan nan nan nan nan nan nan nan nan nan nan nan nan nan nan nan nan nan nan nan nan nan nan nan nan nan nan nan nan nan nan nan nan nan nan nan nan nan nan nan nan nan nan nan nan nan nan nan nan nan nan
52 53 58 54 50 47 47 49 49 50 50 49 47 44 44 44 46 47 48 50 49 46 43 40 38 nan nan nan nan nan nan nan nan nan nan nan nan nan nan nan nan nan nan nan nan nan nan nan nan nan nan nan nan nan nan nan nan nan nan nan nan nan nan nan nan nan nan nan nan nan nan nan nan nan nan nan nan nan nan nan nan nan nan nan nan
48 48 49 49 48 48 48 48 48 50 50 48 44 43 43 43 44 44 46 47 47 45 42 41 nan nan nan nan nan nan nan nan nan nan nan nan nan nan nan nan nan nan nan nan nan nan nan nan nan nan nan nan nan nan nan nan nan nan nan nan nan nan nan nan nan nan nan nan nan nan nan nan nan nan nan nan nan nan nan nan nan nan nan nan nan
46 45 44 43 45 47 48 48 48 49 48 46 44 43 42 41 43 44 44 45 45 44 45 46 48 nan nan nan nan nan nan nan nan nan nan nan nan nan nan nan nan nan nan nan nan nan nan nan nan nan nan nan nan nan nan nan nan nan nan nan nan nan nan nan nan nan nan nan nan nan nan nan nan nan nan nan nan nan nan nan nan nan nan nan nan
46 47 46 47 48 48 48 47 49 51 47 43 42 43 43 44 45 45 44 44 45 47 48 49 50 nan nan nan nan nan nan nan nan nan nan nan nan nan nan nan nan nan nan nan nan nan nan nan nan nan nan nan nan nan nan nan nan nan nan nan nan nan nan nan nan nan nan nan nan nan nan nan nan nan nan nan nan nan nan nan nan nan nan nan nan
50 50 52 53 51 49 48 48 47 45 42 41 42 44 46 47 47 45 44 46 48 50 51 52 nan nan nan nan nan nan nan nan nan nan nan nan nan nan nan nan nan nan nan nan nan nan nan nan nan nan nan nan nan nan nan nan nan nan nan nan nan nan nan nan nan nan nan nan nan nan nan nan nan nan nan nan nan nan nan nan nan nan nan nan nan
51 47 49 51 50 50 49 47 44 43 42 43 44 45 46 45 45 44 46 48 50 51 51 52 nan nan nan nan nan nan nan nan nan nan nan nan nan nan nan nan nan nan nan nan nan nan nan nan nan nan nan nan nan nan nan nan nan nan nan nan nan nan nan nan nan nan nan nan nan nan nan nan nan nan nan nan nan nan nan nan nan nan nan nan nan
nan 47 46 46 47 48 48 47 45 44 43 43 44 44 42 43 44 45 47 48 49 49 49 49 nan nan nan nan nan nan nan nan nan nan nan nan nan nan nan nan nan nan nan nan nan nan nan nan nan nan nan nan nan nan nan nan nan nan nan nan nan nan nan nan nan nan nan nan nan nan nan nan nan nan nan nan nan nan nan nan nan nan nan nan nan
48 47 47 48 48 49 49 49 47 46 45 45 44 42 41 43 44 45 45 46 47 47 48 47 nan nan nan nan nan nan nan nan nan nan nan nan nan nan nan nan nan nan nan nan nan nan nan nan nan nan nan nan nan nan nan nan nan nan nan nan nan nan nan nan nan nan nan nan nan nan nan nan nan nan nan nan nan nan nan nan nan nan nan nan nan
44 46 46 48 51 50 50 49 48 47 45 44 42 41 41 43 43 43 nan 44 45 46 46 nan nan nan nan nan nan nan nan nan nan nan nan nan nan nan nan nan nan nan nan nan nan nan nan nan nan nan nan nan nan nan nan nan nan nan nan nan nan nan nan nan nan nan nan nan nan nan nan nan nan nan nan nan nan nan nan nan nan nan nan nan nan
nan 43 44 42 43 46 45 43 41 40 41 41 41 41 41 41 41 42 42 43 43 43 43 nan nan nan nan nan nan nan nan nan nan nan nan nan nan nan nan nan nan nan nan nan nan nan nan nan nan nan nan nan nan nan nan nan nan nan nan nan nan nan nan nan nan nan nan nan nan nan nan nan nan nan nan nan nan nan nan nan nan nan nan nan nan
37 40 42 43 43 43 41 38 37 36 37 38 38 38 38 39 40 41 42 41 41 41 40 nan nan nan nan nan nan nan nan nan nan nan nan nan nan nan nan nan nan nan nan nan nan nan nan nan nan nan nan nan nan nan nan nan nan nan nan nan nan nan nan nan nan nan nan nan nan nan nan nan nan nan nan nan nan nan nan nan nan nan nan nan nan
38 40 43 44 44 43 42 39 36 36 36 36 36 36 37 38 39 39 nan nan nan nan nan nan nan nan nan nan nan nan nan nan nan nan nan nan nan nan nan nan nan nan nan nan nan nan nan nan nan nan nan nan nan nan nan nan nan nan nan nan nan nan nan nan nan nan nan nan nan nan nan nan nan nan nan nan nan nan nan nan nan nan nan nan nan
nan 46 48 48 48 45 42 38 36 36 37 36 36 37 37 36 nan nan nan nan nan nan nan nan nan nan nan nan nan nan nan nan nan nan nan nan nan nan nan nan nan nan nan nan nan nan nan nan nan nan nan nan nan nan nan nan nan nan nan nan nan nan nan nan nan nan nan nan nan nan nan nan nan nan nan nan nan nan nan nan nan nan nan nan nan
40 42 44 46 46 43 39 36 36 nan 37 36 35 35 35 nan nan nan nan nan nan nan nan nan nan nan nan nan nan nan nan nan nan nan nan nan nan nan nan nan nan nan nan nan nan nan nan nan nan nan nan nan nan nan nan nan nan nan nan nan nan nan nan nan nan nan nan nan nan nan nan nan nan nan nan nan nan nan nan nan nan nan nan nan nan
36 35 36 nan nan nan nan nan nan 35 33 32 nan nan nan nan nan nan nan nan nan nan nan nan nan nan nan nan nan nan nan nan nan nan nan nan nan nan nan nan nan nan nan nan nan nan nan nan nan nan nan nan nan nan nan nan nan nan nan nan nan nan nan nan nan nan nan nan nan nan nan nan nan nan nan nan nan nan nan nan nan nan nan nan nan
38 nan nan nan nan nan nan 35 33 31 30 nan nan nan nan nan nan nan nan nan nan nan nan nan nan nan nan nan nan nan nan nan nan nan nan nan nan nan nan nan nan nan nan nan nan nan nan nan nan nan nan nan nan nan nan nan nan nan nan nan nan nan nan nan nan nan nan nan nan nan nan nan nan nan nan nan nan nan nan nan nan nan nan nan nan
nan nan nan 36 nan nan 32 30 nan nan nan nan nan nan nan nan nan nan nan nan nan nan nan nan nan nan nan nan nan nan nan nan nan nan nan nan nan nan nan nan nan nan nan nan nan nan nan nan nan nan nan nan nan nan nan nan nan nan nan nan nan nan nan nan nan nan nan nan nan nan nan nan nan nan nan nan nan nan nan nan nan nan nan nan nan
Wind_Direction
321 317 308 312 312 313 309 306 305 300 299 nan nan nan nan nan nan nan nan nan nan nan nan nan nan nan nan nan nan nan nan nan nan nan nan nan nan nan nan nan nan nan nan nan nan nan 318 318 316 315 313 318 319 317 316 315 nan nan nan nan nan nan nan nan nan nan nan nan nan nan nan nan nan nan nan nan nan nan nan nan nan nan nan nan nan
322 318 317 319 320 317 314 310 306 304 302 nan nan nan nan nan nan nan nan nan nan nan nan nan nan nan nan nan nan nan nan nan nan nan nan nan nan nan nan nan nan nan nan nan nan 317 317 316 314 312 313 318 317 316 316 315 nan nan nan nan nan nan nan nan nan nan nan nan nan nan nan nan nan nan nan nan nan nan nan nan nan nan nan nan nan
321 318 321 322 322 318 313 311 308 308 306 299 nan nan nan nan nan nan nan nan nan nan nan nan nan nan nan nan nan nan nan nan nan nan nan nan nan nan nan nan nan nan nan nan nan nan 317 315 314 313 312 317 317 315 314 314 nan nan nan nan nan nan nan nan nan nan nan nan nan nan nan nan nan nan nan nan nan nan nan nan nan nan nan nan nan
322 320 319 320 318 313 310 307 307 308 305 nan nan nan nan nan nan nan nan nan nan nan nan nan nan nan nan nan nan nan nan nan nan nan nan nan nan nan nan nan nan nan nan 319 318 317 317 315 315 315 315 316 316 314 313 310 306 nan nan nan nan nan nan nan nan nan nan nan nan nan nan nan nan nan nan nan nan nan nan nan nan nan nan nan nan
316 315 314 314 313 311 312 314 313 308 302 nan nan nan nan nan nan nan nan nan nan nan nan nan nan nan nan nan nan nan nan nan nan nan nan nan nan nan nan nan nan nan nan 317 313 313 313 315 316 315 315 316 314 313 312 310 303 298 296 nan nan nan nan nan nan nan nan nan nan nan nan nan nan nan nan nan nan nan nan nan nan nan nan nan nan
315 312 311 313 316 317 316 311 301 290 nan nan nan nan nan nan nan nan nan nan nan nan nan nan nan nan nan nan nan nan nan nan nan nan nan nan nan nan nan nan nan nan nan nan 313 311 310 312 314 315 316 317 316 314 311 309 302 297 296 nan nan nan nan nan nan nan nan nan nan nan nan nan nan nan nan nan nan nan nan nan nan nan nan nan nan
312 312 314 319 320 315 302 288 285 290 nan nan nan nan nan nan nan nan nan nan nan nan nan nan nan nan nan nan nan nan nan nan nan nan nan nan nan nan nan nan nan nan nan nan 311 309 309 310 313 315 316 317 316 314 nan nan nan nan nan nan nan nan nan nan nan nan nan nan nan nan nan nan nan nan nan nan nan nan nan nan nan nan nan nan nan
315 316 318 319 314 302 298 305 311 312 nan nan nan nan nan nan nan nan nan nan nan nan nan nan nan nan nan nan nan nan nan nan nan nan nan nan nan nan nan nan nan nan nan nan 311 309 309 310 313 315 316 316 315 nan nan nan nan nan nan nan nan nan nan nan nan nan nan nan nan nan nan nan nan nan nan nan nan nan nan nan nan nan nan nan nan
315 316 318 314 307 314 322 324 319 nan 307 304 301 nan nan nan nan nan nan nan nan nan nan nan nan nan nan nan nan nan nan nan nan nan nan nan nan nan nan nan nan nan nan nan nan 310 311 313 315 317 318 319 320 316 313 309 303 301 298 nan nan 296 295 295 295 nan nan nan nan nan nan nan nan nan nan nan nan nan nan nan nan nan nan nan nan
313 315 313 310 315 322 323 318 313 310 306 302 nan nan nan nan nan nan nan nan nan nan nan nan nan nan nan nan nan nan nan nan nan nan nan nan nan nan nan nan nan nan 318 316 nan nan nan nan nan nan nan 322 320 319 318 315 312 304 297 295 296 295 296 296 296 nan nan nan nan nan nan nan nan nan nan nan nan nan nan nan nan nan nan nan nan
312 310 309 313 316 319 318 314 307 302 294 nan nan nan nan nan nan nan nan nan nan nan nan nan nan nan nan nan nan nan nan nan nan nan nan nan nan nan nan nan nan nan nan nan 319 318 318 nan nan nan 319 317 317 318 317 314 309 307 304 301 299 298 298 298 299 298 nan nan 305 nan nan nan nan nan nan nan nan nan nan nan nan nan nan nan nan
312 312 313 313 316 318 315 310 305 302 299 nan nan nan nan nan nan nan nan nan nan nan nan nan nan nan nan nan nan nan nan nan nan 315 315 316 318 319 319 318 317 nan nan nan 320 320 321 nan nan nan 315 315 314 312 311 309 306 303 303 303 305 307 306 303 300 300 302 306 308 306 299 nan nan nan nan nan nan nan nan nan nan nan nan nan nan
320 319 316 316 317 317 310 306 306 308 298 289 286 286 nan nan nan nan nan nan nan nan nan nan nan nan nan nan nan nan nan nan nan nan 316 318 321 322 318 317 318 319 nan 321 322 323 323 nan nan nan nan nan nan 314 311 306 302 302 302 302 304 305 307 310 310 307 304 309 309 304 300 293 nan nan nan nan nan nan nan nan nan nan nan nan nan
325 323 319 317 314 310 305 308 309 305 293 292 nan nan nan nan nan nan nan nan nan nan nan nan nan nan nan nan nan nan nan nan nan nan 315 317 320 319 nan nan 319 321 322 322 323 324 324 323 nan nan nan nan nan nan 312 307 303 301 300 301 300 302 306 311 312 314 316 314 311 305 300 297 nan nan nan nan nan nan nan nan nan nan nan nan nan
323 321 317 310 308 307 306 309 310 311 307 310 nan nan nan nan nan nan nan nan nan nan nan nan nan nan nan 302 301 303 nan nan nan 315 317 318 319 316 314 316 318 320 321 322 323 324 323 322 321 320 318 317 315 313 310 307 304 302 301 301 301 303 304 303 305 306 310 312 nan nan nan nan nan nan nan nan nan nan nan nan nan nan nan nan nan
318 314 311 308 308 309 308 309 314 315 308 310 310 nan nan nan nan nan nan nan nan nan nan 304 nan nan nan 299 300 nan nan nan nan 316 318 318 314 309 nan nan nan nan nan nan nan nan nan nan nan nan nan nan 314 312 310 307 305 303 302 302 303 304 305 305 304 307 309 305 nan nan nan nan nan nan nan nan nan nan nan nan nan nan nan nan nan
314 314 311 307 307 309 310 312 317 317 316 317 nan nan nan nan nan nan nan nan nan nan nan nan nan 296 298 299 303 nan 312 315 315 316 317 317 311 310 nan nan nan nan nan nan nan nan nan nan nan nan nan 317 314 nan nan nan nan nan 303 305 305 305 306 304 309 313 309 nan nan nan nan nan nan nan nan nan nan nan nan nan nan nan nan nan nan
314 315 313 309 307 308 311 313 317 322 321 320 nan nan nan nan nan nan nan nan nan nan nan 294 293 295 299 301 305 310 312 312 314 315 317 317 313 312 313 nan nan nan nan nan nan nan nan nan nan 319 nan nan nan nan nan nan nan nan nan nan nan 307 307 303 298 295 nan nan nan nan nan nan nan nan nan nan nan nan nan nan nan nan nan nan nan
313 313 312 309 307 308 311 314 319 322 323 nan nan nan nan nan nan nan nan nan nan nan nan 296 294 293 296 297 300 306 310 306 307 312 314 313 312 312 nan nan 319 nan nan nan nan nan nan nan nan nan nan nan nan nan nan nan nan nan nan 309 310 310 305 nan nan nan nan nan nan nan nan nan nan nan nan nan nan nan nan nan nan nan nan nan nan
309 309 306 305 306 309 312 316 319 321 324 nan nan nan nan nan nan nan nan nan nan nan nan 299 297 295 294 297 300 303 302 301 306 312 312 312 316 nan 314 316 nan nan nan nan nan nan nan nan nan nan nan nan nan nan nan nan nan nan nan nan nan nan nan nan nan nan nan nan nan nan nan nan nan nan nan nan nan nan nan nan nan nan nan nan nan
306 304 302 302 306 310 311 315 318 321 324 325 319 nan nan nan 299 314 329 326 322 316 307 297 294 294 295 297 297 296 300 302 305 309 310 313 316 317 314 nan nan nan nan nan nan nan nan nan nan nan nan nan nan nan nan nan nan nan nan nan nan nan nan nan nan nan nan nan nan nan nan nan nan nan nan nan nan nan nan nan nan nan nan nan nan
302 300 301 303 307 309 311 313 316 319 323 nan nan 304 293 290 291 309 323 327 327 320 305 295 293 293 294 296 296 297 300 304 305 307 311 314 317 318 nan nan nan nan nan nan nan nan nan nan nan nan nan nan nan nan nan nan nan nan nan nan nan nan nan nan nan nan nan nan nan nan nan nan nan nan nan nan nan nan nan nan nan nan nan nan nan
298 298 299 302 305 307 308 312 313 314 nan nan 313 301 287 284 287 300 316 326 329 321 306 295 294 297 300 299 299 299 299 300 303 306 310 313 nan nan nan nan nan nan nan nan nan nan nan nan nan nan nan nan nan nan nan nan nan nan nan nan nan nan nan nan nan nan nan nan nan nan nan nan nan nan nan nan nan nan nan nan nan nan nan nan nan
293 296 299 301 302 304 306 308 309 311 316 314 311 299 288 284 287 298 310 319 324 319 305 295 295 300 303 303 301 299 298 300 304 309 308 nan nan nan nan nan nan nan nan nan nan nan nan nan nan nan nan nan nan nan nan nan nan nan nan nan nan nan nan nan nan nan nan nan nan nan nan nan nan nan nan nan nan nan nan nan nan nan nan nan nan
292 295 298 299 301 302 301 303 306 309 310 311 309 299 289 285 292 300 305 312 318 315 303 295 298 302 303 304 302 298 299 302 304 nan nan nan nan nan nan nan nan nan nan nan nan nan nan nan nan nan nan nan nan nan nan nan nan nan nan nan nan nan nan nan nan nan nan nan nan nan nan nan nan nan nan nan nan nan nan nan nan nan nan nan nan
294 296 297 298 299 299 301 303 305 309 312 312 308 298 292 289 295 296 299 305 309 307 298 294 297 301 304 303 301 301 302 304 nan nan nan nan nan nan nan nan nan nan nan nan nan nan nan nan nan nan nan nan nan nan nan nan nan nan nan nan nan nan nan nan nan nan nan nan nan nan nan nan nan nan nan nan nan nan nan nan nan nan nan nan nan
294 294 296 297 298 300 303 305 307 310 310 304 298 294 293 294 293 289 292 300 303 300 294 293 295 299 303 303 302 302 303 nan nan nan nan nan nan nan nan nan nan nan nan nan nan nan nan nan nan nan nan nan nan nan nan nan nan nan nan nan nan nan nan nan nan nan nan nan nan nan nan nan nan nan nan nan nan nan nan nan nan nan nan nan nan
294 295 296 296 297 300 302 306 307 304 301 297 292 287 287 291 291 290 294 299 301 297 291 292 296 301 303 304 304 303 nan nan nan nan nan nan nan nan nan nan nan nan nan nan nan nan nan nan nan nan nan nan nan nan nan nan nan nan nan nan nan nan nan nan nan nan nan nan nan nan nan nan nan nan nan nan nan nan nan nan nan nan nan nan nan
294 295 296 295 298 298 298 300 300 298 292 285 279 274 275 280 284 282 282 287 288 290 291 291 295 299 302 303 nan nan nan nan nan nan nan nan nan nan nan nan nan nan nan nan nan nan nan nan nan nan nan nan nan nan nan nan nan nan nan nan nan nan nan nan nan nan nan nan nan nan nan nan nan nan nan nan nan nan nan nan nan nan nan nan nan
293 295 295 296 296 297 297 296 296 297 296 291 286 278 272 275 277 285 288 283 282 281 285 293 297 298 295 nan nan nan nan nan nan nan nan nan nan nan nan nan nan nan nan nan nan nan nan nan nan nan nan nan nan nan nan nan nan nan nan nan nan nan nan nan nan nan nan nan nan nan nan nan nan nan nan nan nan nan nan nan nan nan nan nan nan
294 292 292 293 293 294 296 296 294 291 289 287 285 288 288 280 274 276 280 283 282 281 285 290 293 293 nan nan nan nan nan nan nan nan nan nan nan nan nan nan nan nan nan nan nan nan nan nan nan nan nan nan nan nan nan nan nan nan nan nan nan nan nan nan nan nan nan nan nan nan nan nan nan nan nan nan nan nan nan nan nan nan nan nan nan
293 292 291 289 291 292 293 294 293 291 288 287 289 290 289 288 283 277 277 277 277 280 284 287 289 290 nan nan nan nan nan nan nan nan nan nan nan nan nan nan nan nan nan nan nan nan nan nan nan nan nan nan nan nan nan nan nan nan nan nan nan nan nan nan nan nan nan nan nan nan nan nan nan nan nan nan nan nan nan nan nan nan nan nan nan
292 293 293 293 295 297 296 294 293 288 288 288 289 288 287 288 288 286 279 277 278 279 280 284 287 290 nan nan nan nan nan nan nan nan nan nan nan nan nan nan nan nan nan nan nan nan nan nan nan nan nan nan nan nan nan nan nan nan nan nan nan nan nan nan nan nan nan nan nan nan nan nan nan nan nan nan nan nan nan nan nan nan nan nan nan
294 295 295 nan 295 293 290 288 286 286 287 288 288 288 285 284 285 286 286 287 284 282 281 281 285 nan nan nan nan nan nan nan nan nan nan nan nan nan nan nan nan nan nan nan nan nan nan nan nan nan nan nan nan nan nan nan nan nan nan nan nan nan nan nan nan nan nan nan nan nan nan nan nan nan nan nan nan nan nan nan nan nan nan nan nan
288 292 295 292 291 290 288 287 286 287 288 287 287 286 284 283 285 287 291 293 294 294 294 291 288 nan nan nan nan nan nan nan nan nan nan nan nan nan nan nan nan nan nan nan nan nan nan nan nan nan nan nan nan nan nan nan nan nan nan nan nan nan nan nan nan nan nan nan nan nan nan nan nan nan nan nan nan nan nan nan nan nan nan nan nan
289 289 288 287 284 283 284 285 286 288 289 289 287 285 285 287 288 291 292 293 293 292 292 292 nan nan nan nan nan nan nan nan nan nan nan nan nan nan nan nan nan nan nan nan nan nan nan nan nan nan nan nan nan nan nan nan nan nan nan nan nan nan nan nan nan nan nan nan nan nan nan nan nan nan nan nan nan nan nan nan nan nan nan nan nan
286 284 281 281 284 284 284 285 286 287 287 287 287 287 288 288 289 292 292 290 288 286 290 294 297 nan nan nan nan nan nan nan nan nan nan nan nan nan nan nan nan nan nan nan nan nan nan nan nan nan nan nan nan nan nan nan nan nan nan nan nan nan nan nan nan nan nan nan nan nan nan nan nan nan nan nan nan nan nan nan nan nan nan nan nan
280 279 276 280 284 285 286 288 291 290 287 286 286 288 290 290 291 292 291 288 286 288 293 298 301 nan nan nan nan nan nan nan nan nan nan nan nan nan nan nan nan nan nan nan nan nan nan nan nan nan nan nan nan nan nan nan nan nan nan nan nan nan nan nan nan nan nan nan nan nan nan nan nan nan nan nan nan nan nan nan nan nan nan nan nan
286 285 286 287 286 285 287 289 288 285 283 284 286 288 290 290 290 290 289 286 287 291 296 299 nan nan nan nan nan nan nan nan nan nan nan nan nan nan nan nan nan nan nan nan nan nan nan nan nan nan nan nan nan nan nan nan nan nan nan nan nan nan nan nan nan nan nan nan nan nan nan nan nan nan nan nan nan nan nan nan nan nan nan nan nan
282 280 284 283 278 280 283 285 280 276 278 283 284 285 288 290 290 289 288 290 292 294 296 298 nan nan nan nan nan nan nan nan nan nan nan nan nan nan nan nan nan nan nan nan nan nan nan nan nan nan nan nan nan nan nan nan nan nan nan nan nan nan nan nan nan nan nan nan nan nan nan nan nan nan nan nan nan nan nan nan nan nan nan nan nan
nan 283 278 276 278 280 280 279 278 279 282 284 286 287 289 289 288 288 290 293 294 294 294 295 nan nan nan nan nan nan nan nan nan nan nan nan nan nan nan nan nan nan nan nan nan nan nan nan nan nan nan nan nan nan nan nan nan nan nan nan nan nan nan nan nan nan nan nan nan nan nan nan nan nan nan nan nan nan nan nan nan nan nan nan nan
284 279 276 276 277 278 278 277 277 281 283 286 287 288 289 288 290 291 292 294 294 294 294 295 nan nan nan nan nan nan nan nan nan nan nan nan nan nan nan nan nan nan nan nan nan nan nan nan nan nan nan nan nan nan nan nan nan nan nan nan nan nan nan nan nan nan nan nan nan nan nan nan nan nan nan nan nan nan nan nan nan nan nan nan nan
281 279 278 278 278 279 280 278 278 278 281 284 287 288 289 291 292 293 nan 294 295 296 296 nan nan nan nan nan nan nan nan nan nan nan nan nan nan nan nan nan nan nan nan nan nan nan nan nan nan nan nan nan nan nan nan nan nan nan nan nan nan nan nan nan nan nan nan nan nan nan nan nan nan nan nan nan nan nan nan nan nan nan nan nan nan
nan 268 268 267 271 276 280 283 282 283 282 284 286 287 290 290 290 292 294 295 297 298 297 nan nan nan nan nan nan nan nan nan nan nan nan nan nan nan nan nan nan nan nan nan nan nan nan nan nan nan nan nan nan nan nan nan nan nan nan nan nan nan nan nan nan nan nan nan nan nan nan nan nan nan nan nan nan nan nan nan nan nan nan nan nan
280 278 275 272 272 279 286 289 289 289 289 288 287 289 291 292 293 295 297 297 297 297 295 nan nan nan nan nan nan nan nan nan nan nan nan nan nan nan nan nan nan nan nan nan nan nan nan nan nan nan nan nan nan nan nan nan nan nan nan nan nan nan nan nan nan nan nan nan nan nan nan nan nan nan nan nan nan nan nan nan nan nan nan nan nan
269 272 274 274 276 282 288 288 287 290 294 294 293 293 293 290 291 293 nan nan nan nan nan nan nan nan nan nan nan nan nan nan nan nan nan nan nan nan nan nan nan nan nan nan nan nan nan nan nan nan nan nan nan nan nan nan nan nan nan nan nan nan nan nan nan nan nan nan nan nan nan nan nan nan nan nan nan nan nan nan nan nan nan nan nan
nan 271 272 272 275 280 282 282 283 288 293 294 294 292 291 290 nan nan nan nan nan nan nan nan nan nan nan nan nan nan nan nan nan nan nan nan nan nan nan nan nan nan nan nan nan nan nan nan nan nan nan nan nan nan nan nan nan nan nan nan nan nan nan nan nan nan nan nan nan nan nan nan nan nan nan nan nan nan nan nan nan nan nan nan nan
278 274 271 270 271 273 276 281 288 nan 294 294 291 288 287 nan nan nan nan nan nan nan nan nan nan nan nan nan nan nan nan nan nan nan nan nan nan nan nan nan nan nan nan nan nan nan nan nan nan nan nan nan nan nan nan nan nan nan nan nan nan nan nan nan nan nan nan nan nan nan nan nan nan nan nan nan nan nan nan nan nan nan nan nan nan
281 283 281 nan nan nan nan nan nan 291 290 288 nan nan nan nan nan nan nan nan nan nan nan nan nan nan nan nan nan nan nan nan nan nan nan nan nan nan nan nan nan nan nan nan nan nan nan nan nan nan nan nan nan nan nan nan nan nan nan nan nan nan nan nan nan nan nan nan nan nan nan nan nan nan nan nan nan nan nan nan nan nan nan nan nan
278 nan nan nan nan nan nan 286 288 289 290 nan nan nan nan nan nan nan nan nan nan nan nan nan nan nan nan nan nan nan nan nan nan nan nan nan nan nan nan nan nan nan nan nan nan nan nan nan nan nan nan nan nan nan nan nan nan nan nan nan nan nan nan nan nan nan nan nan nan nan nan nan nan nan nan nan nan nan nan nan nan nan nan nan nan
nan nan nan 283 nan nan 286 289 nan nan nan nan nan nan nan nan nan nan nan nan nan nan nan nan nan nan nan nan nan nan nan nan nan nan nan nan nan nan nan nan nan nan nan nan nan nan nan nan nan nan nan nan nan nan nan nan nan nan nan nan nan nan nan nan nan nan nan nan nan nan nan nan nan nan nan nan nan nan nan nan nan nan nan nan nan